Regional Weather Roundup
Issued by NWS Northern Indiana

Home | Current Version | Previous Version | Text Only | Print | Product List | Glossary Off
Versions: 1 2 3 4 5 6 7 8 9 10 11 12 13 14 15 16 17 18 19 20 21 22 23 24 25 26 27 28 29 30 31 32 33 34 35 36 37 38 39 40 41 42 43 44 45 46 47 48 49 50

000
ASUS43 KIWX 301010
RWRIWX

KIWX WEATHER ROUNDUP
NATIONAL WEATHER SERVICE NORTHERN INDIANA
600 AM EDT FRI SEP 30 2016

NOTE: "FAIR" INDICATES FEW OR NO CLOUDS BELOW 12,000 FEET WITH NO
SIGNIFICANT WEATHER AND/OR OBSTRUCTIONS TO VISIBILITY.

* THESE STATIONS ARE NOT UNDER NWS QUALITY CONTROL. THEY ALSO MAY NOT
  REPORT WEATHER SUCH AS PRECIPITATION OR FOG.

INZ001>027-301100-
NORTHERN INDIANA

CITY           SKY/WX    TMP DP  RH WIND       PRES   REMARKS
VALPARAISO     CLOUDY    59  57  93 NE8       30.12S
MICHIGAN CITY* CLOUDY    57  57 100 CALM      30.13S
LAPORTE*       CLOUDY   N/A N/A N/A NE10      30.13S
KNOX*          CLOUDY    59  46  63 NE8       30.10S
SOUTH BEND     CLOUDY    59  58  96 NE7       30.13S
GOSHEN         LGT RAIN  60  57  89 NE10      30.10F FOG
MONTICELLO*    CLOUDY    59  55  88 N12       30.05F
LOGANSPORT*    CLOUDY    59  59 100 N8        30.06S
ROCHESTER*     CLOUDY    61  61 100 N7        30.07F
WARSAW*        CLOUDY    59  59 100 NE6       30.09S
ANGOLA*          N/A     59  48  67 NE8       30.10F
FORT WAYNE     CLOUDY    60  58  92 NE10      30.06F
HUNTINGTON*    MOCLDY   N/A N/A N/A NE6       30.05F
PERU/GRISSOM   CLOUDY    60  60 100 NE12      30.04R
MARION*        CLOUDY    59  58  94 NE9       30.04S FOG

$$
INZ028>050-301100-
CENTRAL INDIANA

CITY           SKY/WX    TMP DP  RH WIND       PRES   REMARKS
LAFAYETTE      CLOUDY    59  59 100 NE8       30.05R
KOKOMO*        CLOUDY    60  59  96 NE12      30.06R
MUNCIE*        CLOUDY    61  58  90 CALM      30.04S FOG
INDIANAPOLIS   CLOUDY    60  58  92 NE7       30.04R

$$
MIZ043>046-050>051-056>058-064>065-071>073-077>080-301100-
SOUTHWEST LOWER MICHIGAN

CITY           SKY/WX    TMP DP  RH WIND       PRES   REMARKS
BATTLE CREEK   LGT RAIN  59  59 100 NE9       30.16S FOG
BENTON HARBOR  CLOUDY    61  56  83 NE10      30.13F
COLDWATER*     CLOUDY    59  59  99 NE10      30.12F
HILLSDALE*     DRIZZLE   59  57  94 NE5       30.12F
HOLLAND        CLOUDY    60  56  86 NE9G16    30.18R
GRAND RAPIDS   LGT RAIN  58  56  93 NE10      30.18F
KALAMAZOO      RAIN      60  57  89 NE7       30.16R FOG
STURGIS*       CLOUDY    60  58  93 NE8       30.11F
THREE RIVERS*  CLOUDY    60  59  96 NE6       30.13F

$$
OHZ001>008-015>018-024>025-301100-
NORTHWEST OHIO

CITY           SKY/WX    TMP DP  RH WIND       PRES   REMARKS
WAUSEON*       CLOUDY    61  59  94 E9        30.10F
DEFIANCE       CLOUDY    62  58  86 VRB7      30.08F
FINDLAY        CLOUDY    61  57  87 NE12      30.06F
TOLEDO EXPRESS CLOUDY    61  60  97 E9        30.11S
TOLEDO METCALF CLOUDY    63  60  90 E9        30.12S
LIMA           CLOUDY    59  59 100 NE12      30.06S

$$
AND FOR LAKE MICHIGAN COASTAL AND OPEN LAKE BUOY OBSERVATIONS

STATION/POSITION TEMP    WIND        PRES    VSBY  WAVE
                 AIR SEA DIR/SP/G                  HT/PER
                 (F)     (DEG/KT/KT) (MB)    (MI)  (FT/S)
CALUMET HARBOR    62      30/ 12/ 16 1019.9S
MICHIGAN CITY     60      20/ 18/ 20   N/A
BURNS HARBOR      62      50/ 20/ 21 1020.3R
SAINT JOSEPH      61      40/  5/ 11 1020.7
SOUTH LAKE BUOY   63 68   60/ 17/ 23 1021.1F         5/ 6
4 MI NW BRIDGMAN  56 56   20/  8/ 10 1020.7          3/ 5
MICHIGAN CITY     61 64   50/ 16/ 21   N/A           6/ 6

$$
&&



USA.gov is the U.S. government's official web portal to all federal, state and local government web resources and services.